Regional Weather Roundup
Issued by NWS Charleston, WV

Home | Current Version | Previous Version | Graphics & Text | Print | Product List | Glossary On
Versions: 1 2 3 4 5 6 7 8 9 10 11 12 13 14 15 16 17 18 19 20 21 22 23 24 25 26 27 28 29 30 31 32 33 34 35 36 37 38 39 40 41 42 43 44 45 46 47 48 49 50
583
ASUS41 KRLX 241010
RWRRLX
West Virginia Regional Weather Roundup
National Weather Service Charleston WV
600 AM EDT FRI MAR 24 2017

Note: "fair" indicates few or no clouds below 12,000 feet with no
significant weather and/or obstructions to visibility.

WVZ003-241100-
Northern Panhandle of West Virginia

CITY           SKY/WX    TMP DP  RH WIND       PRES   REMARKS
WHEELING       LGT RAIN  41  35  79 E8        30.23R
$$

WVZ009-241100-
Northwest West Virginia

CITY           SKY/WX    TMP DP  RH WIND       PRES   REMARKS
PARKERSBURG    CLOUDY    53  26  35 S7        30.24S
$$

WVZ006-241100-
Western West Virginia

CITY           SKY/WX    TMP DP  RH WIND       PRES   REMARKS
HUNTINGTON     CLOUDY    55  30  38 S12       30.22R
$$

WVZ015-241100-
West Central West Virginia

CITY           SKY/WX    TMP DP  RH WIND       PRES   REMARKS
CHARLESTON     PTCLDY    53  26  35 S7        30.24F
$$

WVZ022-031-241100-
North Central West Virginia

CITY           SKY/WX    TMP DP  RH WIND       PRES   REMARKS
CLARKSBURG     LGT RAIN  43  35  73 CALM      30.25R
MORGANTOWN     LGT RAIN  49  32  52 W3        30.25R
$$

WVZ025-035-042-045-241100-
Southern West Virginia

CITY           SKY/WX    TMP DP  RH WIND       PRES   REMARKS
BECKLEY        CLOUDY    44  23  43 SE7       30.30F
LOGAN            N/A     52  27  37 VRB7G17   30.26F
BLUEFIELD      CLOUDY    45  23  42 S6        30.34S
LEWISBURG      CLOUDY    34  23  63 CALM      30.35S
$$

WVZ047-241100-
Northern Mountains of West Virginia

CITY           SKY/WX    TMP DP  RH WIND       PRES   REMARKS
ELKINS         CLOUDY    45  21  38 SE7       30.28F
$$

WVZ052-241100-
Eastern Panhandle of West Virginia

CITY           SKY/WX    TMP DP  RH WIND       PRES   REMARKS
MARTINSBURG    PTCLDY    30  18  60 CALM      30.35F
PETERSBURG     PTCLDY    47  22  37 S12G21    30.30F
$$




USA.gov is the U.S. government's official web portal to all federal, state and local government web resources and services.